This demonstration page uses our WeatherBlox Daily Observations layout. Learn more.

Left ArrowRight Arrow

Hourly Observations for May 30, 2021

Temp ( °F °C ) Dew Point ( °F °C ) Humidity (%) Winds ( mph kmh ) Pressure ( in mb ) Visibility ( mi km ) Precip ( " mm )
12:15 am 00:15 undefined 56 13.2 49 9.5 78 78 SE 15 24 30.11 1020 10 16 N/A
12:35 am 00:35 undefined 55 12.7 49 9.7 82 82 SE 13 20 30.12 1020 10 16 N/A
12:55 am 00:55 undefined 54 12.3 50 10 86 86 SE 14 22 30.11 1020 10 16 N/A
1:15 am 01:15 Mostly Clear with Nearby Thunderstorms 54 12.1 50 10.1 88 88 SE 13 20 30.11 1020 10 16 N/A
1:35 am 01:35 Mostly Clear with Drizzle 54 12.1 50 10 87 87 SE 10 17 30.11 1020 10 16 N/A
1:55 am 01:55 undefined 54 12.1 50 10 87 87 S 12 19 30.15 1021 10 16 N/A
2:15 am 02:15 undefined 54 12.1 50 10 87 87 SSE 12 19 30.13 1020 10 16 N/A
2:35 am 02:35 undefined 54 12 50 10 88 88 SSE 7 11 30.14 1020 10 16 N/A
2:55 am 02:55 undefined 54 12 50 10 88 88 SSE 10 17 30.14 1020 10 16 N/A
3:15 am 03:15 undefined 54 12 50 10 88 88 SSE 12 19 30.14 1020 10 16 N/A
3:35 am 03:35 undefined 54 12 50 10 88 88 SSE 13 20 30.13 1020 10 16 N/A
3:55 am 03:55 undefined 54 12 50 9.8 87 87 SSE 12 19 30.13 1020 10 16 N/A
4:15 am 04:15 undefined 54 12 50 9.8 87 87 SSE 7 11 30.13 1020 10 16 N/A
4:35 am 04:35 Mostly Clear with Rain 54 12 50 10 88 88 S 6 9 30.15 1021 10 16 N/A
4:55 am 04:55 Mostly Clear with Rain 53 11.7 50 10.1 90 90 S 5 7 30.16 1021 7 11 0.01 0.25
5:15 am 05:15 Mostly Clear with Rain 53 11.5 50 10.2 92 92 S 7 11 30.15 1021 10 16 0.01 0.25
5:35 am 05:35 Mostly Clear with Light Rain 53 11.5 51 10.5 94 94 SSE 3 6 30.15 1021 10 16 0.02 0.51
5:55 am 05:55 Cloudy with Drizzle 52 11.3 51 10.5 95 95 SSE 6 9 30.15 1021 10 16 0.02 0.51
6:15 am 06:15 Cloudy with Drizzle 52 11.3 51 10.5 95 95 SE 7 11 30.15 1021 10 16 N/A
6:35 am 06:35 Cloudy with Drizzle 52 11.1 51 10.5 96 96 SE 8 13 30.15 1021 10 16 0.01 0.25
6:55 am 06:55 Cloudy with Light Rain 52 11 51 10.3 95 95 SE 7 11 30.15 1021 7 11 0.03 0.76
7:15 am 07:15 Partly Cloudy with Light Rain 52 11 51 10.5 97 97 SE 9 15 30.15 1021 7 11 0.02 0.51
7:35 am 07:35 Partly Cloudy with Light Rain 52 11 51 10.5 97 97 SE 9 15 30.15 1021 5 8 0.04 1.02
7:55 am 07:55 Partly Cloudy with Light Rain 52 11.1 51 10.5 96 96 SE 10 17 30.15 1021 5 8 0.07 1.78
8:15 am 08:15 Partly Cloudy with Light Rain 52 11.2 51 10.6 96 96 SE 10 17 30.16 1021 5 8 0.03 0.76
8:35 am 08:35 Partly Cloudy with Light Rain 52 11.1 51 10.5 96 96 SE 9 15 30.17 1022 7 11 0.05 1.27
8:55 am 08:55 Partly Cloudy with Rain 52 11.3 51 10.7 96 96 SE 7 11 30.17 1022 5 8 0.08 2.03
9:15 am 09:15 Cloudy with Drizzle 52 11.3 51 10.7 96 96 SE 10 17 30.16 1021 5 8 0.02 0.51
9:35 am 09:35 Partly Cloudy with Light Rain 53 11.5 51 10.8 96 96 SE 9 15 30.17 1022 5 8 0.04 1.02
9:55 am 09:55 Partly Cloudy with Light Rain 53 11.5 52 10.9 96 96 SE 8 13 30.17 1022 7 11 0.05 1.27
10:15 am 10:15 Cloudy with Drizzle 53 11.8 52 11.1 96 96 SSE 6 9 30.17 1022 5 8 0.01 0.25
10:35 am 10:35 Cloudy with Drizzle 53 11.8 52 11.1 96 96 SE 8 13 30.17 1022 4 6 0.02 0.51
10:55 am 10:55 Cloudy with Drizzle 53 11.8 52 11.1 96 96 SE 6 9 30.18 1022 3 5 0.04 1.02
11:15 am 11:15 Partly Cloudy with Drizzle 54 12 53 11.5 97 97 SE 6 9 30.18 1022 3 5 0.03 0.76
11:35 am 11:35 Partly Cloudy with Drizzle 54 12.3 53 11.7 96 96 SSE 6 9 30.18 1022 3 5 0.06 1.52
11:55 am 11:55 Partly Cloudy with Drizzle 55 12.7 54 12.1 96 96 SSE 5 7 30.17 1022 3 4 0.08 2.03
12:15 pm 12:15 Partly Cloudy with Drizzle 55 12.6 54 12 96 96 SSE 6 9 30.17 1022 3 4 0.01 0.25
12:35 pm 12:35 Partly Cloudy with Mist and Fog 56 13.4 55 12.6 95 95 SSE 7 11 30.15 1021 5 8 0.02 0.51
12:55 pm 12:55 undefined 57 13.8 55 12.6 93 93 SSE 5 7 30.16 1021 10 16 0.02 0.51
1:15 pm 13:15 Cloudy 57 13.7 54 12.3 91 91 N N/A 30.16 1021 10 16 N/A
1:35 pm 13:35 undefined 57 14 55 12.5 91 91 SE 3 6 30.15 1021 10 16 N/A
1:55 pm 13:55 undefined 57 13.7 55 12.5 93 93 SSE 8 13 30.15 1021 10 16 N/A
2:15 pm 14:15 undefined 57 13.7 55 12.7 94 94 SSE 7 11 30.15 1021 7 11 N/A
2:35 pm 14:35 Partly Cloudy with Mist and Fog 57 13.7 55 12.8 94 94 SSE 6 9 30.15 1021 5 8 N/A
2:55 pm 14:55 Partly Cloudy with Light Rain 57 14 56 13.1 94 94 SSE 5 7 30.15 1021 3 4 N/A
3:15 pm 15:15 Partly Cloudy with Light Rain 57 14 55 13 94 94 N N/A 30.15 1021 2 3 N/A
3:35 pm 15:35 Partly Cloudy with Mist and Fog 57 14.1 55 12.7 91 91 SE 7 11 30.15 1021 5 8 0.01 0.25
3:55 pm 15:55 Partly Cloudy with Mist and Fog 57 14 55 12.7 92 92 SE 9 15 30.15 1021 4 6 0.01 0.25
4:15 pm 16:15 Partly Cloudy with Mist and Fog 57 13.7 55 12.7 94 94 SE 9 15 30.14 1021 3 4 N/A
4:35 pm 16:35 Partly Cloudy with Mist and Fog 57 13.8 55 12.9 94 94 SE 9 15 30.14 1021 3 5 N/A
4:55 pm 16:55 undefined 57 13.7 55 12.8 94 94 SE 10 17 30.15 1021 10 16 N/A
5:15 pm 17:15 Cloudy 57 13.7 55 12.7 94 94 ESE 9 15 30.15 1021 10 16 N/A
5:35 pm 17:35 Cloudy 56 13.5 55 12.5 94 94 ESE 8 13 30.16 1021 10 16 N/A
5:55 pm 17:55 Cloudy with Light Rain 56 13.3 54 12.2 93 93 ESE 9 15 30.16 1021 10 16 N/A
6:15 pm 18:15 Cloudy with Light Rain 55 13 54 12 94 94 ESE 8 13 30.16 1021 10 16 N/A
6:35 pm 18:35 Cloudy 55 12.8 53 11.7 93 93 ESE 9 15 30.17 1022 10 16 N/A
6:55 pm 18:55 Cloudy 55 12.7 53 11.6 93 93 ESE 9 15 30.17 1022 10 16 N/A
7:15 pm 19:15 Cloudy 55 12.6 53 11.5 93 93 ESE 6 9 30.17 1022 10 16 N/A
7:35 pm 19:35 Cloudy 55 12.7 52 11.3 91 91 ESE 5 7 30.18 1022 10 16 N/A
7:55 pm 19:55 Cloudy 55 12.7 52 11.3 91 91 ESE 6 9 30.18 1022 10 16 N/A
8:15 pm 20:15 Cloudy 55 12.7 52 11.2 91 91 ESE 5 7 30.18 1022 10 16 N/A
8:35 pm 20:35 Cloudy 55 12.7 52 11.1 90 90 N N/A 30.19 1022 10 16 N/A
8:55 pm 20:55 Cloudy 55 12.6 52 11.3 92 92 ESE 5 7 30.19 1022 10 16 N/A
9:15 pm 21:15 Cloudy 55 12.6 53 11.4 92 92 ESE 3 6 30.19 1022 10 16 N/A
9:35 pm 21:35 Cloudy 55 12.5 52 11.2 92 92 SE 5 7 30.20 1023 10 16 N/A
9:55 pm 21:55 Cloudy 55 12.5 52 11.2 92 92 SE 3 6 30.21 1023 10 16 N/A
10:15 pm 22:15 Cloudy 54 12.4 52 11.1 92 92 ESE 5 7 30.20 1023 10 16 N/A
10:35 pm 22:35 Cloudy 55 12.5 52 11.2 92 92 N N/A 30.21 1023 10 16 N/A
10:55 pm 22:55 Cloudy 55 12.5 52 11.1 91 91 N N/A 30.21 1023 10 16 N/A
11:15 pm 23:15 Cloudy 55 12.5 52 11.1 91 91 N N/A 30.22 1023 10 16 N/A
11:35 pm 23:35 Cloudy 55 12.5 52 11.1 91 91 N N/A 30.22 1023 10 16 N/A
11:55 pm 23:55 Cloudy 54 12.3 52 11.1 92 92 N N/A 30.21 1023 10 16 N/A

Powered by AerisWeather